Regional Weather Roundup
Issued by NWS Columbia, SC

Home | Current Version | Previous Version | Text Only | Print | Product List | Glossary On
Versions: 1 2 3 4 5 6 7 8 9 10 11 12 13 14 15 16 17 18 19 20 21 22 23 24 25 26 27 28 29 30 31 32 33 34 35 36 37 38 39 40 41 42 43 44 45 46 47 48 49 50
000
ASUS42 KCAE 301710
RWRCAE
REGIONAL WEATHER ROUNDUP
NATIONAL WEATHER SERVICE COLUMBIA SC
100 PM EDT WED JUL 30 2014

NOTE: "FAIR" INDICATES FEW OR NO CLOUDS BELOW 12,000 FEET WITH NO
SIGNIFICANT WEATHER AND/OR OBSTRUCTIONS TO VISIBILITY.

NOT ALL STATIONS ARE QUALITY CONTROLLED BY THE NATIONAL
WEATHER SERVICE. USE DATA WITH CAUTION...ESPECIALLY
DEWPOINT OBSERVATIONS.

SCZ001>056-GAZ040-063>065-077-301800-
...UPSTATE SOUTH CAROLINA...

CITY           SKY/WX    TMP DP  RH WIND       PRES   REMARKS
ANDERSON       FAIR      80  56  43 CALM      30.07F
LIBERTY        FAIR      79  76  89 NE5       30.09F
SPARTANBURG    FAIR      79  59  50 E5        30.08F
GREENVILLE     FAIR      79  56  45 NE12      30.10F
GREENWOOD      FAIR      82  59  45 NE9       30.07F
GREER          FAIR      78  57  48 N9        30.08F
ROCK HILL      FAIR      78  62  57 VRB5      30.08F
CHESTER        FAIR      81  63  54 NE7       30.07F
LAURENS        FAIR      81  59  47 N6        30.08F


...CENTRAL SOUTH CAROLINA...

CITY           SKY/WX    TMP DP  RH WIND       PRES   REMARKS
COLUMBIA APT   FAIR      88  61  40 NE6       30.02F
COLUMBIA OWENS FAIR      86  61  42 SE6       30.04F
DARLINGTON     FAIR      84  66  54 E7        30.05F
FLORENCE       PTSUNNY   86  68  54 E7        30.03F
MCENTIRE ANGB  PTSUNNY   85  64  48 VRB6      30.04F
ORANGEBURG     FAIR      87  66  49 E7        30.01F
SUMTER SHAW    FAIR      85  67  55 NE6       30.02F
NEWBERRY       FAIR      81  59  47 NE6       30.08F
AIKEN          FAIR      82  64  54 SE6       30.06S
BARNWELL       FAIR      88  68  51 E3        30.01F
MANNING        CLOUDY    86  70  58 NE6       30.02S
CAMDEN         PTSUNNY   82  63  51 E3        30.05F
LANCASTER      PTSUNNY   81  66  61 E9        30.07S
WINNSBORO      FAIR      84  61  45 NE6       30.05F


...EASTERN AND COASTAL SOUTH CAROLINA...

CITY           SKY/WX    TMP DP  RH WIND       PRES   REMARKS
MYRTLE BEACH   MOSUNNY   84  66  54 E12       30.04S
N MYRTLE BCH   PTSUNNY   84  66  54 E9        30.03S
CONWAY         FAIR      84  64  51 SE5       30.03F
MARION         FAIR      84  59  42 SE5       30.04S
HARTSVILLE     PTSUNNY   84  39  20 CALM      30.06S
FLORENCE       PTSUNNY   86  68  54 E7        30.03F
DARLINGTON     FAIR      84  66  54 E7        30.05F
CHARLESTON APT PTSUNNY   87  69  54 E13       30.01F
MOUNT PLEASANT FAIR      82  72  69 CALM      30.02S
BEAUFORT       PTSUNNY   85  70  60 SE9       30.00F


...EASTERN GEORGIA...

CITY           SKY/WX    TMP DP  RH WIND       PRES   REMARKS
AUGUSTA BUSH F FAIR      85  66  53 SE7       30.01F
AUGUSTA DANIEL FAIR      86  63  45 VRB6      30.03F
THOMSON        FAIR      85  69  58 CALM      30.08S
WASHINGTON     FAIR      84  64  51 NE3       30.04F
CLAXTON        CLOUDY    86  68  54 CALM      30.00F
SYLVANIA       FAIR      84  75  73 CALM      30.01F
STATESBORO     CLOUDY    83  69  61 CALM      30.00F
SAVANNAH       CLOUDY    86  67  52 E9        29.99F


...SOUTHERN NORTH CAROLINA...

CITY           SKY/WX    TMP DP  RH WIND       PRES   REMARKS
CHARLOTTE      FAIR      79  60  52 NE5       30.09F
MONROE         FAIR      79  63  57 E5        30.07F
WADESBORO      FAIR      81  63  53 CALM      30.06F
ROCKINGHAM       N/A     81  63  54 NE5       30.06S
RUTHERFORDTON  FAIR      75  58  54 CALM      30.11F
ASHEVILLE      FAIR      72  52  49 NW5       30.14F

$$


USA.gov is the U.S. government's official web portal to all federal, state and local government web resources and services.